カタログに戻る

STARLINK-34101

運用中通信VLEO
NORAD 63812·PAYLOAD·🇺🇸 United States

打ち上げ May 4, 2025 から Cape Canaveral Space Force Station

Loading…

次のパス (今後24時間)

TLE

最新Source: CelesTrak SupGP

元期: Sep 15, 2026, 03:28 UTC

1 63812C 25092J   26258.14493056 -.00015332  00000+0 -55547-3 0  2585
2 63812  42.9998 182.2094 0001204 275.9240  93.0416 15.27578445    17

AllMySatでSTARLINK-34101をリアルタイム追跡

Download on the App Store